Location: Doverdale
(52.2833°N, 2.2000°W)
Time: 12:00:57
(UTC+00:00)

Cosmos 2263 Rocket - Pass Details

Date: 29 October 2020
Orbit: 822 x 850 km, 71.0° (Epoch: 24 November)

Event Time Altitude Azimuth Distance (km) Brightness Sun altitude
Rises 18:35:04 0° 329° (NNW) 3,421 5.8 -17.4°
Reaches altitude 10° 18:37:38 10° 336° (NNW) 2,485 4.9 -17.7°
Maximum altitude 18:43:08 46° 49° (NE) 1,131 2.5 -18.6°
Enters shadow 18:45:05 34° 97° (E) 1,380 2.7 -18.9°
